TimeCDT,TemperatureF,Dew PointF,Humidity,Sea Level PressureIn,VisibilityMPH,Wind Direction,Wind SpeedMPH,Gust SpeedMPH,PrecipitationIn,Events,Conditions,WindDirDegrees,DateUTC
12:15 AM,48.2,30.2,50,29.68,10.0,South,10.4,-,N/A,,Clear,180,2014-03-14 05:15:00
12:35 AM,48.2,28.4,46,29.66,10.0,South,9.2,-,N/A,,Clear,190,2014-03-14 05:35:00
12:55 AM,48.2,28.4,46,29.65,10.0,SSW,9.2,-,N/A,,Clear,200,2014-03-14 05:55:00
1:15 AM,50.0,26.6,40,29.65,10.0,SSW,11.5,-,N/A,,Clear,200,2014-03-14 06:15:00
1:35 AM,51.8,24.8,35,29.64,10.0,SSW,13.8,21.9,N/A,,Clear,210,2014-03-14 06:35:00
1:55 AM,51.8,24.8,35,29.64,10.0,SW,13.8,21.9,N/A,,Clear,220,2014-03-14 06:55:00
2:15 AM,51.8,24.8,35,29.63,10.0,SW,15.0,21.9,N/A,,Clear,220,2014-03-14 07:15:00
2:35 AM,53.6,23.0,30,29.63,10.0,SW,15.0,23.0,N/A,,Clear,220,2014-03-14 07:35:00
2:55 AM,53.6,23.0,30,29.62,10.0,SW,17.3,24.2,N/A,,Clear,220,2014-03-14 07:55:00
3:15 AM,53.6,23.0,30,29.61,10.0,SSW,19.6,27.6,N/A,,Clear,210,2014-03-14 08:15:00
3:35 AM,53.6,23.0,30,29.61,10.0,SW,16.1,25.3,N/A,,Clear,220,2014-03-14 08:35:00
3:55 AM,51.8,23.0,33,29.64,10.0,WSW,11.5,20.7,N/A,,Clear,240,2014-03-14 08:55:00
4:15 AM,50.0,24.8,37,29.64,10.0,WSW,13.8,-,N/A,,Clear,250,2014-03-14 09:15:00
4:35 AM,50.0,24.8,37,29.63,10.0,SW,16.1,-,N/A,,Clear,230,2014-03-14 09:35:00
4:55 AM,48.2,24.8,40,29.62,10.0,SW,15.0,-,N/A,,Clear,230,2014-03-14 09:55:00
5:15 AM,48.2,24.8,40,29.62,10.0,WSW,10.4,19.6,N/A,,Clear,240,2014-03-14 10:15:00
5:35 AM,46.4,24.8,43,29.63,10.0,WSW,13.8,19.6,N/A,,Clear,240,2014-03-14 10:35:00
5:55 AM,46.4,26.6,46,29.63,10.0,West,10.4,-,N/A,,Clear,260,2014-03-14 10:55:00
6:15 AM,44.6,26.6,49,29.64,10.0,West,12.7,-,N/A,,Clear,270,2014-03-14 11:15:00
6:35 AM,44.6,26.6,49,29.66,10.0,WNW,15.0,-,N/A,,Clear,290,2014-03-14 11:35:00
6:55 AM,41.0,28.4,61,29.66,10.0,NW,10.4,19.6,N/A,,Clear,310,2014-03-14 11:55:00
7:15 AM,41.0,30.2,65,29.67,10.0,NW,9.2,18.4,N/A,,Clear,320,2014-03-14 12:15:00
7:35 AM,41.0,30.2,65,29.70,10.0,NW,10.4,-,N/A,,Clear,310,2014-03-14 12:35:00
7:55 AM,39.2,32.0,75,29.71,10.0,WNW,9.2,-,N/A,,Clear,290,2014-03-14 12:55:00
8:15 AM,39.2,32.0,75,29.72,10.0,WNW,10.4,-,N/A,,Clear,300,2014-03-14 13:15:00
8:35 AM,41.0,32.0,70,29.73,10.0,NW,10.4,18.4,N/A,,Clear,310,2014-03-14 13:35:00
8:55 AM,42.8,32.0,66,29.74,10.0,WNW,12.7,-,N/A,,Clear,300,2014-03-14 13:55:00
9:15 AM,42.8,32.0,66,29.75,10.0,WNW,13.8,19.6,N/A,,Clear,300,2014-03-14 14:15:00
9:35 AM,44.6,32.0,61,29.76,10.0,WNW,16.1,-,N/A,,Clear,300,2014-03-14 14:35:00
9:55 AM,44.6,32.0,61,29.76,10.0,WNW,12.7,-,N/A,,Clear,290,2014-03-14 14:55:00
10:15 AM,46.4,32.0,57,29.77,10.0,WNW,17.3,24.2,N/A,,Clear,290,2014-03-14 15:15:00
10:35 AM,46.4,32.0,57,29.77,10.0,WNW,17.3,25.3,N/A,,Clear,300,2014-03-14 15:35:00
10:55 AM,48.2,32.0,54,29.78,10.0,WNW,17.3,28.8,N/A,,Clear,300,2014-03-14 15:55:00
11:15 AM,48.2,32.0,54,29.79,10.0,WNW,19.6,29.9,N/A,,Clear,300,2014-03-14 16:15:00
11:35 AM,48.2,33.8,58,29.80,10.0,WNW,23.0,36.8,N/A,,Clear,300,2014-03-14 16:35:00
11:55 AM,48.2,32.0,54,29.80,10.0,WNW,26.5,36.8,N/A,,Clear,300,2014-03-14 16:55:00
12:15 PM,50.0,33.8,54,29.81,10.0,WNW,24.2,31.1,N/A,,Clear,290,2014-03-14 17:15:00
12:35 PM,50.0,33.8,54,29.82,10.0,WNW,21.9,32.2,N/A,,Clear,300,2014-03-14 17:35:00
12:55 PM,50.0,32.0,50,29.82,10.0,WNW,23.0,32.2,N/A,,Clear,300,2014-03-14 17:55:00
1:15 PM,51.8,33.8,50,29.83,10.0,WNW,20.7,33.4,N/A,,Clear,300,2014-03-14 18:15:00
1:35 PM,51.8,33.8,50,29.83,10.0,WNW,23.0,31.1,N/A,,Scattered Clouds,290,2014-03-14 18:35:00
1:55 PM,51.8,33.8,50,29.84,10.0,WNW,17.3,26.5,N/A,,Mostly Cloudy,300,2014-03-14 18:55:00
2:15 PM,51.8,33.8,50,29.84,10.0,WNW,19.6,31.1,N/A,,Mostly Cloudy,300,2014-03-14 19:15:00
2:35 PM,53.6,33.8,47,29.84,10.0,WNW,21.9,32.2,N/A,,Mostly Cloudy,300,2014-03-14 19:35:00
2:55 PM,51.8,33.8,50,29.84,10.0,WNW,18.4,27.6,N/A,,Scattered Clouds,300,2014-03-14 19:55:00
3:15 PM,51.8,32.0,47,29.84,10.0,WNW,19.6,25.3,N/A,,Partly Cloudy,300,2014-03-14 20:15:00
3:35 PM,51.8,32.0,47,29.85,10.0,WNW,16.1,28.8,N/A,,Clear,300,2014-03-14 20:35:00
3:55 PM,53.6,32.0,44,29.85,10.0,WNW,18.4,28.8,N/A,,Clear,300,2014-03-14 20:55:00
4:15 PM,51.8,32.0,47,29.86,10.0,WNW,23.0,31.1,N/A,,Scattered Clouds,300,2014-03-14 21:15:00
4:35 PM,51.8,32.0,47,29.86,10.0,NW,13.8,20.7,N/A,,Scattered Clouds,310,2014-03-14 21:35:00
4:55 PM,51.8,32.0,47,29.86,10.0,NW,11.5,21.9,N/A,,Mostly Cloudy,310,2014-03-14 21:55:00
5:15 PM,50.0,32.0,50,29.87,10.0,WNW,16.1,21.9,N/A,,Mostly Cloudy,300,2014-03-14 22:15:00
5:35 PM,50.0,30.2,47,29.87,10.0,WNW,15.0,-,N/A,,Partly Cloudy,290,2014-03-14 22:35:00
5:55 PM,51.8,30.2,44,29.87,10.0,WNW,13.8,20.7,N/A,,Partly Cloudy,300,2014-03-14 22:55:00
6:15 PM,51.8,30.2,44,29.88,10.0,WNW,12.7,20.7,N/A,,Partly Cloudy,300,2014-03-14 23:15:00
6:35 PM,50.0,30.2,47,29.89,10.0,WNW,10.4,-,N/A,,Scattered Clouds,300,2014-03-14 23:35:00
6:55 PM,50.0,30.2,47,29.90,10.0,WNW,8.1,-,N/A,,Scattered Clouds,290,2014-03-14 23:55:00
7:15 PM,48.2,30.2,50,29.91,10.0,WNW,9.2,-,N/A,,Scattered Clouds,300,2014-03-15 00:15:00
7:35 PM,46.4,30.2,53,29.91,10.0,WNW,5.8,-,N/A,,Clear,290,2014-03-15 00:35:00
7:55 PM,46.4,30.2,53,29.92,10.0,WNW,4.6,-,N/A,,Clear,290,2014-03-15 00:55:00
8:15 PM,44.6,30.2,57,29.93,10.0,WNW,4.6,-,N/A,,Clear,290,2014-03-15 01:15:00
8:35 PM,44.6,30.2,57,29.93,10.0,WNW,4.6,-,N/A,,Clear,290,2014-03-15 01:35:00
8:55 PM,44.6,30.2,57,29.93,10.0,WNW,3.5,-,N/A,,Clear,300,2014-03-15 01:55:00
9:15 PM,42.8,30.2,61,29.94,10.0,WNW,4.6,-,N/A,,Clear,300,2014-03-15 02:15:00
9:35 PM,41.0,30.2,65,29.95,10.0,NW,5.8,-,N/A,,Clear,310,2014-03-15 02:35:00
9:55 PM,41.0,30.2,65,29.95,10.0,NNW,8.1,-,N/A,,Clear,330,2014-03-15 02:55:00
10:15 PM,41.0,32.0,70,29.96,10.0,North,4.6,-,N/A,,Clear,360,2014-03-15 03:15:00
10:35 PM,39.2,30.2,70,29.97,10.0,North,5.8,-,N/A,,Clear,360,2014-03-15 03:35:00
10:55 PM,37.4,30.2,75,29.97,10.0,Calm,Calm,-,N/A,,Clear,0,2014-03-15 03:55:00
11:15 PM,35.6,30.2,81,29.97,10.0,Calm,Calm,-,N/A,,Clear,0,2014-03-15 04:15:00
11:35 PM,32.0,28.4,87,29.96,10.0,Calm,Calm,-,N/A,,Clear,0,2014-03-15 04:35:00
11:55 PM,32.0,30.2,93,29.97,10.0,Calm,Calm,-,N/A,,Clear,0,2014-03-15 04:55:00